Time,TemperatureF,DewpointF,PressureIn,WindDirection,WindDirectionDegrees,WindSpeedMPH,WindSpeedGustMPH,Humidity,HourlyPrecipIn,Conditions,Clouds,dailyrainin,SoftwareType,DateUTC
2013-05-04 00:02:00,58.0,-99.9,30.13,NE,50,23.0,32.0,-999,-99.99,,,-99.99,,2013-05-04 04:02:00,
2013-05-04 00:13:00,58.0,-99.9,30.13,NE,48,22.0,29.0,-999,-99.99,,,-99.99,,2013-05-04 04:13:00,
2013-05-04 00:23:00,58.0,-99.9,30.13,NE,53,22.0,31.0,-999,-99.99,,,-99.99,,2013-05-04 04:23:00,
2013-05-04 00:33:00,58.0,-99.9,30.13,NE,49,22.0,30.0,-999,-99.99,,,-99.99,,2013-05-04 04:33:00,
2013-05-04 00:43:00,57.0,-99.9,30.12,NE,49,22.0,33.0,-999,-99.99,,,-99.99,,2013-05-04 04:43:00,
2013-05-04 00:53:00,57.0,-99.9,30.12,NE,51,16.0,29.0,-999,-99.99,,,-99.99,,2013-05-04 04:53:00,
2013-05-04 01:02:00,57.0,-99.9,30.11,NE,49,21.0,28.0,-999,-99.99,,,-99.99,,2013-05-04 05:02:00,
2013-05-04 01:12:00,57.0,-99.9,30.11,NE,47,23.0,29.0,-999,-99.99,,,-99.99,,2013-05-04 05:12:00,
2013-05-04 01:22:00,58.0,-99.9,30.11,NE,52,21.0,28.0,-999,-99.99,,,-99.99,,2013-05-04 05:22:00,
2013-05-04 01:32:00,57.0,-99.9,30.11,NE,50,19.0,30.0,-999,-99.99,,,-99.99,,2013-05-04 05:32:00,
2013-05-04 01:43:00,58.0,-99.9,30.10,NE,50,17.0,28.0,-999,-99.99,,,-99.99,,2013-05-04 05:43:00,
2013-05-04 01:52:00,58.0,-99.9,30.10,NE,50,19.0,30.0,-999,-99.99,,,-99.99,,2013-05-04 05:52:00,
2013-05-04 02:02:00,58.0,-99.9,30.09,NE,55,19.0,28.0,-999,-99.99,,,-99.99,,2013-05-04 06:02:00,
2013-05-04 02:12:00,58.0,-99.9,30.09,NE,51,19.0,28.0,-999,-99.99,,,-99.99,,2013-05-04 06:12:00,
2013-05-04 02:22:00,58.0,-99.9,30.09,ENE,58,15.0,28.0,-999,-99.99,,,-99.99,,2013-05-04 06:22:00,
2013-05-04 02:32:00,57.0,-99.9,30.08,NE,48,20.0,29.0,-999,-99.99,,,-99.99,,2013-05-04 06:32:00,
2013-05-04 02:42:00,57.0,-99.9,30.07,NE,51,17.0,28.0,-999,-99.99,,,-99.99,,2013-05-04 06:42:00,
2013-05-04 02:52:00,58.0,-99.9,30.07,NE,48,20.0,28.0,-999,-99.99,,,-99.99,,2013-05-04 06:52:00,
2013-05-04 03:01:00,58.0,-99.9,30.06,NE,53,18.0,28.0,-999,-99.99,,,-99.99,,2013-05-04 07:01:00,
2013-05-04 03:11:00,58.0,-99.9,30.06,NE,50,19.0,28.0,-999,-99.99,,,-99.99,,2013-05-04 07:11:00,
2013-05-04 03:22:00,58.0,-99.9,30.06,NE,50,18.0,29.0,-999,-99.99,,,-99.99,,2013-05-04 07:22:00,
2013-05-04 03:32:00,58.0,-99.9,30.06,NE,53,19.0,27.0,-999,-99.99,,,-99.99,,2013-05-04 07:32:00,
2013-05-04 03:42:00,58.0,-99.9,30.06,NE,52,17.0,31.0,-999,-99.99,,,-99.99,,2013-05-04 07:42:00,
2013-05-04 03:52:00,58.0,-99.9,30.06,NE,51,17.0,31.0,-999,-99.99,,,-99.99,,2013-05-04 07:52:00,
2013-05-04 04:02:00,58.0,-99.9,30.06,NE,55,17.0,26.0,-999,-99.99,,,-99.99,,2013-05-04 08:02:00,
2013-05-04 04:12:00,58.0,-99.9,30.06,NE,53,20.0,31.0,-999,-99.99,,,-99.99,,2013-05-04 08:12:00,
2013-05-04 04:22:00,58.0,-99.9,30.06,NE,55,18.0,26.0,-999,-99.99,,,-99.99,,2013-05-04 08:22:00,
2013-05-04 04:32:00,58.0,-99.9,30.06,NE,54,16.0,27.0,-999,-99.99,,,-99.99,,2013-05-04 08:32:00,
2013-05-04 04:42:00,58.0,-99.9,30.06,NE,52,21.0,30.0,-999,-99.99,,,-99.99,,2013-05-04 08:42:00,
2013-05-04 04:52:00,58.0,-99.9,30.06,NE,53,18.0,26.0,-999,-99.99,,,-99.99,,2013-05-04 08:52:00,
2013-05-04 05:02:00,58.0,-99.9,30.06,NE,53,21.0,28.0,-999,-99.99,,,-99.99,,2013-05-04 09:02:00,
2013-05-04 05:11:00,58.0,-99.9,30.06,NE,55,17.0,25.0,-999,-99.99,,,-99.99,,2013-05-04 09:11:00,
2013-05-04 05:22:00,58.0,-99.9,30.07,NE,55,17.0,26.0,-999,-99.99,,,-99.99,,2013-05-04 09:22:00,
2013-05-04 05:33:00,58.0,-99.9,30.07,NE,56,17.0,25.0,-999,-99.99,,,-99.99,,2013-05-04 09:33:00,
2013-05-04 05:42:00,58.0,-99.9,30.07,NE,56,21.0,31.0,-999,-99.99,,,-99.99,,2013-05-04 09:42:00,
2013-05-04 05:53:00,58.0,-99.9,30.07,NE,52,17.0,27.0,-999,-99.99,,,-99.99,,2013-05-04 09:53:00,
2013-05-04 06:03:00,58.0,-99.9,30.07,NE,50,17.0,26.0,-999,-99.99,,,-99.99,,2013-05-04 10:03:00,
2013-05-04 06:12:00,58.0,-99.9,30.07,NE,49,20.0,27.0,-999,-99.99,,,-99.99,,2013-05-04 10:12:00,
2013-05-04 06:23:00,58.0,-99.9,30.08,NE,53,17.0,27.0,-999,-99.99,,,-99.99,,2013-05-04 10:23:00,
2013-05-04 06:33:00,58.0,-99.9,30.08,NE,50,21.0,28.0,-999,-99.99,,,-99.99,,2013-05-04 10:33:00,
2013-05-04 06:42:00,57.0,-99.9,30.08,NE,50,19.0,25.0,-999,-99.99,,,-99.99,,2013-05-04 10:42:00,
2013-05-04 06:53:00,57.0,-99.9,30.08,NE,49,20.0,26.0,-999,-99.99,,,-99.99,,2013-05-04 10:53:00,
2013-05-04 07:02:00,57.0,-99.9,30.08,NE,48,21.0,29.0,-999,-99.99,,,-99.99,,2013-05-04 11:02:00,
2013-05-04 07:12:00,57.0,-99.9,30.09,NE,49,19.0,27.0,-999,-99.99,,,-99.99,,2013-05-04 11:12:00,
2013-05-04 07:22:00,57.0,-99.9,30.09,NE,53,20.0,26.0,-999,-99.99,,,-99.99,,2013-05-04 11:22:00,
2013-05-04 07:32:00,57.0,-99.9,30.08,NE,46,19.0,29.0,-999,-99.99,,,-99.99,,2013-05-04 11:32:00,
2013-05-04 07:46:00,58.0,-99.9,30.08,NE,48,20.0,31.0,-999,-99.99,,,-99.99,,2013-05-04 11:46:00,
2013-05-04 08:04:00,58.0,-99.9,30.09,NE,44,22.0,31.0,-999,-99.99,,,-99.99,,2013-05-04 12:04:00,
2013-05-04 08:10:00,58.0,-99.9,30.09,NE,46,18.0,29.0,-999,-99.99,,,-99.99,,2013-05-04 12:10:00,
2013-05-04 08:31:00,58.0,-99.9,30.09,NE,45,21.0,30.0,-999,-99.99,,,-99.99,,2013-05-04 12:31:00,
2013-05-04 08:38:00,58.0,-99.9,30.09,NE,48,20.0,28.0,-999,-99.99,,,-99.99,,2013-05-04 12:38:00,
2013-05-04 08:52:00,59.0,-99.9,30.09,NE,47,22.0,29.0,-999,-99.99,,,-99.99,,2013-05-04 12:52:00,
2013-05-04 09:02:00,59.0,-99.9,30.09,NE,46,21.0,28.0,-999,-99.99,,,-99.99,,2013-05-04 13:02:00,
2013-05-04 09:11:00,59.0,-99.9,30.09,NE,44,19.0,27.0,-999,-99.99,,,-99.99,,2013-05-04 13:11:00,
2013-05-04 09:32:00,58.0,-99.9,30.09,NE,44,20.0,30.0,-999,-99.99,,,-99.99,,2013-05-04 13:32:00,
2013-05-04 09:42:00,59.0,-99.9,30.09,NE,44,17.0,27.0,-999,-99.99,,,-99.99,,2013-05-04 13:42:00,
2013-05-04 09:53:00,58.0,-99.9,30.09,NE,42,21.0,26.0,-999,-99.99,,,-99.99,,2013-05-04 13:53:00,
2013-05-04 10:02:00,58.0,-99.9,30.09,NE,44,22.0,28.0,-999,-99.99,,,-99.99,,2013-05-04 14:02:00,
2013-05-04 10:11:00,58.0,-99.9,30.09,NE,41,19.0,30.0,-999,-99.99,,,-99.99,,2013-05-04 14:11:00,
2013-05-04 10:22:00,58.0,-99.9,30.09,NE,42,19.0,30.0,-999,-99.99,,,-99.99,,2013-05-04 14:22:00,
2013-05-04 10:32:00,58.0,-99.9,30.09,NE,38,21.0,28.0,-999,-99.99,,,-99.99,,2013-05-04 14:32:00,
2013-05-04 10:42:00,59.0,-99.9,30.09,NE,38,20.0,27.0,-999,-99.99,,,-99.99,,2013-05-04 14:42:00,
2013-05-04 10:52:00,59.0,-99.9,30.09,NE,49,23.0,30.0,-999,-99.99,,,-99.99,,2013-05-04 14:52:00,
2013-05-04 11:02:00,60.0,-99.9,30.09,NE,49,21.0,28.0,-999,-99.99,,,-99.99,,2013-05-04 15:02:00,
2013-05-04 11:12:00,60.0,-99.9,30.09,NE,45,23.0,30.0,-999,-99.99,,,-99.99,,2013-05-04 15:12:00,
2013-05-04 11:22:00,60.0,-99.9,30.09,NE,37,21.0,28.0,-999,-99.99,,,-99.99,,2013-05-04 15:22:00,
2013-05-04 11:33:00,59.0,-99.9,30.09,NE,43,19.0,27.0,-999,-99.99,,,-99.99,,2013-05-04 15:33:00,
2013-05-04 11:43:00,59.0,-99.9,30.09,NE,42,21.0,29.0,-999,-99.99,,,-99.99,,2013-05-04 15:43:00,
2013-05-04 11:53:00,58.0,-99.9,30.09,NE,43,22.0,30.0,-999,-99.99,,,-99.99,,2013-05-04 15:53:00,
2013-05-04 12:03:00,58.0,-99.9,30.09,NE,34,23.0,28.0,-999,-99.99,,,-99.99,,2013-05-04 16:03:00,
2013-05-04 12:12:00,58.0,-99.9,30.09,NE,36,21.0,31.0,-999,-99.99,,,-99.99,,2013-05-04 16:12:00,
2013-05-04 12:22:00,58.0,-99.9,30.09,NE,35,19.0,29.0,-999,-99.99,,,-99.99,,2013-05-04 16:22:00,
2013-05-04 12:33:00,58.0,-99.9,30.09,NE,43,20.0,27.0,-999,-99.99,,,-99.99,,2013-05-04 16:33:00,
2013-05-04 12:42:00,58.0,-99.9,30.09,NE,38,19.0,30.0,-999,-99.99,,,-99.99,,2013-05-04 16:42:00,
2013-05-04 12:52:00,58.0,-99.9,30.08,NE,43,21.0,28.0,-999,-99.99,,,-99.99,,2013-05-04 16:52:00,
2013-05-04 13:02:00,58.0,-99.9,30.08,NE,39,21.0,30.0,-999,-99.99,,,-99.99,,2013-05-04 17:02:00,
2013-05-04 13:12:00,59.0,-99.9,30.08,NE,39,21.0,29.0,-999,-99.99,,,-99.99,,2013-05-04 17:12:00,
2013-05-04 13:23:00,59.0,-99.9,30.08,NE,37,19.0,30.0,-999,-99.99,,,-99.99,,2013-05-04 17:23:00,
2013-05-04 13:33:00,60.0,-99.9,30.07,NE,43,19.0,31.0,-999,-99.99,,,-99.99,,2013-05-04 17:33:00,
2013-05-04 13:42:00,60.0,-99.9,30.07,NE,47,20.0,32.0,-999,-99.99,,,-99.99,,2013-05-04 17:42:00,
2013-05-04 13:52:00,60.0,-99.9,30.07,NE,46,21.0,28.0,-999,-99.99,,,-99.99,,2013-05-04 17:52:00,
2013-05-04 14:01:00,59.0,-99.9,30.07,NE,48,19.0,29.0,-999,-99.99,,,-99.99,,2013-05-04 18:01:00,
2013-05-04 14:12:00,59.0,-99.9,30.07,NE,48,18.0,25.0,-999,-99.99,,,-99.99,,2013-05-04 18:12:00,
2013-05-04 14:22:00,58.0,-99.9,30.07,NE,45,21.0,27.0,-999,-99.99,,,-99.99,,2013-05-04 18:22:00,
2013-05-04 14:32:00,59.0,-99.9,30.07,NE,44,17.0,26.0,-999,-99.99,,,-99.99,,2013-05-04 18:32:00,
2013-05-04 14:42:00,58.0,-99.9,30.07,NE,45,20.0,26.0,-999,-99.99,,,-99.99,,2013-05-04 18:42:00,
2013-05-04 14:52:00,58.0,-99.9,30.06,NE,40,20.0,26.0,-999,-99.99,,,-99.99,,2013-05-04 18:52:00,
2013-05-04 15:02:00,59.0,-99.9,30.07,NE,46,19.0,26.0,-999,-99.99,,,-99.99,,2013-05-04 19:02:00,
2013-05-04 15:11:00,59.0,-99.9,30.06,NE,45,19.0,27.0,-999,-99.99,,,-99.99,,2013-05-04 19:11:00,
2013-05-04 15:22:00,59.0,-99.9,30.06,NE,44,18.0,25.0,-999,-99.99,,,-99.99,,2013-05-04 19:22:00,
2013-05-04 15:32:00,59.0,-99.9,30.06,NE,47,17.0,26.0,-999,-99.99,,,-99.99,,2013-05-04 19:32:00,
2013-05-04 15:42:00,59.0,-99.9,30.06,NE,46,22.0,29.0,-999,-99.99,,,-99.99,,2013-05-04 19:42:00,
2013-05-04 15:52:00,60.0,-99.9,30.05,NE,48,21.0,27.0,-999,-99.99,,,-99.99,,2013-05-04 19:52:00,
2013-05-04 16:02:00,60.0,-99.9,30.06,NE,51,18.0,26.0,-999,-99.99,,,-99.99,,2013-05-04 20:02:00,
2013-05-04 16:11:00,60.0,-99.9,30.05,NE,45,17.0,27.0,-999,-99.99,,,-99.99,,2013-05-04 20:11:00,
2013-05-04 16:22:00,60.0,-99.9,30.05,NE,44,18.0,27.0,-999,-99.99,,,-99.99,,2013-05-04 20:22:00,
2013-05-04 16:32:00,60.0,-99.9,30.05,NE,47,22.0,26.0,-999,-99.99,,,-99.99,,2013-05-04 20:32:00,
2013-05-04 16:42:00,60.0,-99.9,30.05,NE,46,19.0,26.0,-999,-99.99,,,-99.99,,2013-05-04 20:42:00,
2013-05-04 16:52:00,60.0,-99.9,30.05,NE,49,19.0,25.0,-999,-99.99,,,-99.99,,2013-05-04 20:52:00,
2013-05-04 17:02:00,60.0,-99.9,30.04,NE,42,19.0,27.0,-999,-99.99,,,-99.99,,2013-05-04 21:02:00,
2013-05-04 17:12:00,60.0,-99.9,30.05,NE,49,19.0,29.0,-999,-99.99,,,-99.99,,2013-05-04 21:12:00,
2013-05-04 17:22:00,60.0,-99.9,30.05,NE,46,18.0,24.0,-999,-99.99,,,-99.99,,2013-05-04 21:22:00,
2013-05-04 17:33:00,60.0,-99.9,30.05,NE,44,19.0,26.0,-999,-99.99,,,-99.99,,2013-05-04 21:33:00,
2013-05-04 17:43:00,60.0,-99.9,30.05,NE,41,20.0,25.0,-999,-99.99,,,-99.99,,2013-05-04 21:43:00,
2013-05-04 17:53:00,60.0,-99.9,30.05,NE,47,20.0,25.0,-999,-99.99,,,-99.99,,2013-05-04 21:53:00,
2013-05-04 18:03:00,60.0,-99.9,30.05,NE,50,16.0,24.0,-999,-99.99,,,-99.99,,2013-05-04 22:03:00,
2013-05-04 18:12:00,60.0,-99.9,30.05,NE,48,18.0,26.0,-999,-99.99,,,-99.99,,2013-05-04 22:12:00,
2013-05-04 18:22:00,60.0,-99.9,30.05,NE,55,14.0,24.0,-999,-99.99,,,-99.99,,2013-05-04 22:22:00,
2013-05-04 18:33:00,60.0,-99.9,30.04,NE,50,18.0,25.0,-999,-99.99,,,-99.99,,2013-05-04 22:33:00,
2013-05-04 18:43:00,60.0,-99.9,30.04,NE,49,18.0,25.0,-999,-99.99,,,-99.99,,2013-05-04 22:43:00,
2013-05-04 18:52:00,60.0,-99.9,30.04,NE,47,17.0,26.0,-999,-99.99,,,-99.99,,2013-05-04 22:52:00,
2013-05-04 19:02:00,60.0,-99.9,30.04,NE,50,18.0,29.0,-999,-99.99,,,-99.99,,2013-05-04 23:02:00,
2013-05-04 19:12:00,60.0,-99.9,30.04,NE,54,15.0,28.0,-999,-99.99,,,-99.99,,2013-05-04 23:12:00,
2013-05-04 19:22:00,60.0,-99.9,30.04,NE,51,19.0,31.0,-999,-99.99,,,-99.99,,2013-05-04 23:22:00,
2013-05-04 19:32:00,60.0,-99.9,30.04,NE,51,17.0,24.0,-999,-99.99,,,-99.99,,2013-05-04 23:32:00,
2013-05-04 19:43:00,59.0,-99.9,30.04,NE,56,17.0,26.0,-999,-99.99,,,-99.99,,2013-05-04 23:43:00,
2013-05-04 19:52:00,59.0,-99.9,30.04,NE,49,17.0,28.0,-999,-99.99,,,-99.99,,2013-05-04 23:52:00,
2013-05-04 20:02:00,59.0,-99.9,30.04,ENE,58,17.0,28.0,-999,-99.99,,,-99.99,,2013-05-05 00:02:00,
2013-05-04 20:12:00,59.0,-99.9,30.04,ENE,60,16.0,26.0,-999,-99.99,,,-99.99,,2013-05-05 00:12:00,
2013-05-04 20:22:00,59.0,-99.9,30.04,NE,55,17.0,26.0,-999,-99.99,,,-99.99,,2013-05-05 00:22:00,
2013-05-04 20:32:00,59.0,-99.9,30.04,NE,49,20.0,29.0,-999,-99.99,,,-99.99,,2013-05-05 00:32:00,
2013-05-04 20:42:00,59.0,-99.9,30.04,NE,53,19.0,26.0,-999,-99.99,,,-99.99,,2013-05-05 00:42:00,
2013-05-04 20:52:00,59.0,-99.9,30.04,NE,55,17.0,29.0,-999,-99.99,,,-99.99,,2013-05-05 00:52:00,
2013-05-04 21:01:00,59.0,-99.9,30.04,NE,53,18.0,28.0,-999,-99.99,,,-99.99,,2013-05-05 01:01:00,
2013-05-04 21:11:00,59.0,-99.9,30.05,NE,53,18.0,25.0,-999,-99.99,,,-99.99,,2013-05-05 01:11:00,
2013-05-04 21:22:00,58.0,-99.9,30.05,NE,54,17.0,26.0,-999,-99.99,,,-99.99,,2013-05-05 01:22:00,
2013-05-04 21:32:00,59.0,-99.9,30.05,NE,50,17.0,28.0,-999,-99.99,,,-99.99,,2013-05-05 01:32:00,
2013-05-04 21:42:00,59.0,-99.9,30.06,NE,53,17.0,25.0,-999,-99.99,,,-99.99,,2013-05-05 01:42:00,
2013-05-04 21:52:00,59.0,-99.9,30.06,NE,54,16.0,27.0,-999,-99.99,,,-99.99,,2013-05-05 01:52:00,
2013-05-04 22:02:00,58.0,-99.9,30.06,NE,54,15.0,24.0,-999,-99.99,,,-99.99,,2013-05-05 02:02:00,
2013-05-04 22:12:00,58.0,-99.9,30.07,NE,53,13.0,24.0,-999,-99.99,,,-99.99,,2013-05-05 02:12:00,
2013-05-04 22:22:00,58.0,-99.9,30.07,NE,51,14.0,24.0,-999,-99.99,,,-99.99,,2013-05-05 02:22:00,
2013-05-04 22:32:00,58.0,-99.9,30.06,NE,50,15.0,22.0,-999,-99.99,,,-99.99,,2013-05-05 02:32:00,
2013-05-04 22:42:00,58.0,-99.9,30.06,NE,52,15.0,24.0,-999,-99.99,,,-99.99,,2013-05-05 02:42:00,
2013-05-04 22:52:00,58.0,-99.9,30.06,NE,47,18.0,23.0,-999,-99.99,,,-99.99,,2013-05-05 02:52:00,
2013-05-04 23:02:00,58.0,-99.9,30.06,NE,50,17.0,23.0,-999,-99.99,,,-99.99,,2013-05-05 03:02:00,
2013-05-04 23:12:00,58.0,-99.9,30.06,NE,50,18.0,25.0,-999,-99.99,,,-99.99,,2013-05-05 03:12:00,
2013-05-04 23:22:00,58.0,-99.9,30.05,NE,48,18.0,25.0,-999,-99.99,,,-99.99,,2013-05-05 03:22:00,
2013-05-04 23:33:00,58.0,-99.9,30.05,NE,49,20.0,25.0,-999,-99.99,,,-99.99,,2013-05-05 03:33:00,
2013-05-04 23:43:00,58.0,-99.9,30.05,NE,48,18.0,25.0,-999,-99.99,,,-99.99,,2013-05-05 03:43:00,
2013-05-04 23:53:00,58.0,-99.9,30.05,NE,49,17.0,25.0,-999,-99.99,,,-99.99,,2013-05-05 03:53:00,